TimeEST,TemperatureF,Dew PointF,Humidity,Sea Level PressureIn,VisibilityMPH,Wind Direction,Wind SpeedMPH,Gust SpeedMPH,PrecipitationIn,Events,Conditions,WindDirDegrees,DateUTC
12:53 AM,14.0,8.1,77,30.07,4.0,NW,17.3,24.2,0.00,Snow,Light Snow,320,2013-02-09 05:53:00
1:15 AM,14.0,8.1,77,30.00,2.5,NW,15.0,-,0.00,Snow,Light Snow,310,2013-02-09 06:15:00
1:34 AM,14.0,8.1,77,30.00,2.0,NW,12.7,-,0.00,Snow,Light Snow,320,2013-02-09 06:34:00
1:51 AM,14.0,6.8,73,30.01,3.0,NW,18.4,-,0.00,Snow,Light Snow,320,2013-02-09 06:51:00
1:53 AM,14.0,7.0,74,30.09,3.0,NW,18.4,-,0.00,Snow,Light Snow,320,2013-02-09 06:53:00
2:27 AM,14.0,8.1,77,30.04,2.5,NW,10.4,-,0.00,Snow,Light Snow,320,2013-02-09 07:27:00
2:39 AM,14.0,8.1,77,30.04,1.8,NW,12.7,-,0.00,Snow,Light Snow,320,2013-02-09 07:39:00
2:49 AM,14.0,8.6,79,30.04,2.0,NW,13.8,-,0.00,Snow,Light Snow,320,2013-02-09 07:49:00
2:53 AM,14.0,8.1,77,30.12,2.0,NW,12.7,-,0.00,Snow,Light Snow,320,2013-02-09 07:53:00
3:31 AM,14.0,8.1,77,30.05,1.8,NNW,16.1,-,0.00,Snow,Light Snow,330,2013-02-09 08:31:00
3:53 AM,14.0,8.1,77,30.14,2.0,NW,13.8,24.2,0.00,Snow,Light Snow,320,2013-02-09 08:53:00
4:53 AM,14.0,8.1,77,30.18,2.0,NW,18.4,27.6,0.00,Snow,Light Snow,320,2013-02-09 09:53:00
5:27 AM,14.0,8.1,77,30.11,1.8,NNW,11.5,-,0.00,Snow,Light Snow,330,2013-02-09 10:27:00
5:53 AM,14.0,8.1,77,30.21,2.0,NNW,18.4,25.3,0.00,Snow,Light Snow,340,2013-02-09 10:53:00
6:25 AM,14.0,8.1,77,30.13,3.0,NNW,12.7,-,0.00,Snow,Light Snow,340,2013-02-09 11:25:00
6:53 AM,14.0,8.1,77,30.25,3.0,NNW,12.7,-,0.00,Snow,Light Snow,330,2013-02-09 11:53:00
7:30 AM,14.0,8.1,77,30.18,1.8,NW,13.8,-,0.00,Snow,Light Snow,320,2013-02-09 12:30:00
7:53 AM,14.0,8.1,77,30.30,1.0,WNW,13.8,-,0.00,Snow,Light Snow,300,2013-02-09 12:53:00
8:34 AM,14.0,7.0,74,30.21,1.2,NW,12.7,-,0.00,Snow,Light Snow,310,2013-02-09 13:34:00
8:53 AM,14.0,7.0,74,30.32,1.5,NW,12.7,-,0.00,Snow,Light Snow,310,2013-02-09 13:53:00
9:14 AM,14.0,7.0,74,30.21,2.5,NW,11.5,-,0.00,Snow,Light Snow,310,2013-02-09 14:14:00
9:35 AM,14.0,7.0,74,30.21,2.5,NW,13.8,-,0.00,Snow,Light Snow,320,2013-02-09 14:35:00
9:53 AM,14.0,7.0,74,30.32,2.5,NW,13.8,-,0.00,Snow,Light Snow,310,2013-02-09 14:53:00
10:00 AM,14.0,7.0,74,30.21,3.0,WNW,12.7,-,0.00,Snow,Light Snow,300,2013-02-09 15:00:00
10:53 AM,17.1,9.0,71,30.33,5.0,NW,11.5,-,0.00,Snow,Light Snow,310,2013-02-09 15:53:00
11:53 AM,18.0,10.0,71,30.34,3.0,NW,13.8,-,0.00,Snow,Light Snow,320,2013-02-09 16:53:00
12:53 PM,19.9,10.9,68,30.33,10.0,NW,12.7,-,0.00,,Mostly Cloudy,310,2013-02-09 17:53:00
1:06 PM,21.0,12.0,68,30.22,10.0,NW,10.4,-,0.00,,Partly Cloudy,320,2013-02-09 18:06:00
1:53 PM,21.9,12.0,66,30.33,10.0,NW,8.1,-,0.00,,Scattered Clouds,310,2013-02-09 18:53:00
2:53 PM,23.0,12.0,63,30.32,10.0,NW,9.2,-,N/A,,Clear,310,2013-02-09 19:53:00
3:53 PM,23.0,12.0,63,30.34,10.0,NNW,10.4,-,N/A,,Clear,330,2013-02-09 20:53:00
4:53 PM,21.9,10.0,60,30.34,10.0,NW,10.4,-,N/A,,Clear,310,2013-02-09 21:53:00
5:53 PM,19.9,10.0,65,30.37,10.0,NW,6.9,-,N/A,,Clear,310,2013-02-09 22:53:00
6:53 PM,14.0,9.0,80,30.38,10.0,Calm,Calm,-,N/A,,Clear,0,2013-02-09 23:53:00
7:53 PM,12.0,8.1,84,30.38,10.0,Calm,Calm,-,N/A,,Clear,0,2013-02-10 00:53:00
8:53 PM,12.0,7.0,80,30.40,10.0,Calm,Calm,-,N/A,,Clear,0,2013-02-10 01:53:00
9:53 PM,9.0,6.1,88,30.40,10.0,WNW,3.5,-,N/A,,Clear,290,2013-02-10 02:53:00
10:53 PM,7.0,1.9,80,30.40,10.0,Calm,Calm,-,N/A,,Clear,0,2013-02-10 03:53:00
11:53 PM,3.9,-0.9,80,30.40,7.0,Calm,Calm,-,N/A,,Clear,0,2013-02-10 04:53:00